Location: Ariel
(45.9570°N, 122.5700°W)
Time: 02:03:19
(UTC-07:00)

Transit 4A - Pass Details

Date: 19 July 2019
Orbit: 863 x 981 km, 66.8° (Epoch: 20 August)

Event Time Altitude Azimuth Distance (km) Brightness Sun altitude
Rises 06:01:33 0° 279° (W) 3,679 10.5 2.7°
Reaches altitude 10° 06:05:22 10° 302° (WNW) 2,739 10.1 3.3°
Maximum altitude 06:09:03 16° 337° (NNW) 2,358 10.1 3.8°
Drops below altitude 10° 06:12:44 10° 12° (NNE) 2,738 11.0 4.4°
Sets 06:16:34 0° 35° (NE) 3,676 12.2 5.0°
